Location: Leiter
(44.7178°N, 106.2687°W)
Time: 22:30:20
(UTC+00:00)

STARS - Pass Details

Date: 11 July 2022
Orbit: 620 x 637 km, 98.2° (Epoch: 07 August)

Event Time Altitude Azimuth Distance (km) Brightness Sun altitude
Rises 04:54:52 0° 26° (NNE) 2,919 ? -16.3°
Reaches altitude 10° 04:57:30 10° 42° (NE) 2,004 ? -16.6°
Maximum altitude 05:00:54 22° 94° (E) 1,364 ? -16.9°
Enters shadow 05:01:21 22° 103° (ESE) 1,377 ? -17.0°
